Hourly Data Report for October 02, 2014

All times are specified in Local Standard Time (LST). Add 1 hour to adjust for Daylight Saving Time where and when it is observed.

KAMLOOPS A
BRITISH COLUMBIA

50°42'09.000" N
120°26'55.000" W
345.30 m
1163781
71887
YKA

Download Data

Hourly Data (October 2014)
Hourly Data Report for October 2, 2014
Temp Definition
°C
Dew Point Temp Definition
°C
Rel Hum Definition
%
Wind Dir Definition
10's deg

Wind Spd Definition
km/h
Visibility Definition
km
Stn Press Definition
kPa
Hmdx Definition


Wind Chill Definition


Weather Definition


TIME
00:00 Legend Double Dagger 7.5 0.3 60 27 14 64.4 98.09     LegendNANA
01:00 Legend Double Dagger 7.7 0.0 58 27 14 64.4 98.20     Mainly Clear
02:00 Legend Double Dagger 6.4 -0.1 63 26 11 64.4 98.23     LegendNANA
03:00 Legend Double Dagger 6.7 0.4 64 25 16 64.4 98.28     LegendNANA
04:00 Legend Double Dagger 6.2 0.3 66 26 16 64.4 98.34     Mainly Clear
05:00 Legend Double Dagger 5.7 0.5 69 10 6 64.4 98.43     LegendNANA
06:00 Legend Double Dagger 4.2 -0.4 72 28 3 56.3 98.52     LegendNANA
07:00 Legend Double Dagger 4.8 0.8 75 36 2 64.4 98.59     Mainly Clear
08:00 Legend Double Dagger 6.9 1.0 66 11 10 64.4 98.67     LegendNANA
09:00 Legend Double Dagger 8.7 0.7 57 18 5 64.4 98.70     LegendNANA
10:00 Legend Double Dagger 10.4 0.5 50 0 1 64.4 98.69     Mainly Clear
11:00 Legend Double Dagger 11.7 -0.7 42 20 5 64.4 98.65     LegendNANA
12:00 Legend Double Dagger 13.4 -2.5 33 17 5 64.4 98.61     LegendNANA
13:00 Legend Double Dagger 14.4 -3.4 29 13 8 64.4 98.58     Mainly Clear
14:00 Legend Double Dagger 15.4 -3.4 27 11 10 64.4 98.57     LegendNANA
15:00 Legend Double Dagger 16.0 -2.9 27 10 15 64.4 98.54     LegendNANA
16:00 Legend Double Dagger 15.6 -3.3 27 15 13 64.4 98.54     Mainly Clear
17:00 Legend Double Dagger 14.5 -1.5 33 11 13 64.4 98.52     LegendNANA
18:00 Legend Double Dagger 11.3 -1.8 40 6 12 64.4 98.56     LegendNANA
19:00 Legend Double Dagger 10.0 -2.3 42 7 8 64.4 98.59     Mainly Clear
20:00 Legend Double Dagger 9.0 -1.7 47 9 14 64.4 98.65     LegendNANA
21:00 Legend Double Dagger 10.0 -0.2 49 10 17 64.4 98.64     LegendNANA
22:00 Legend Double Dagger 9.7 -0.8 48 11 19 64.4 98.64     Mostly Cloudy
23:00 Legend Double Dagger 9.3 0.0 52 11 17 64.4 98.66     LegendNANA

Notes on Data Quality.

Legend

  • E = Estimated
  • M = Missing
  • NA = Not Available
  • ‡ = Partner data that is not subject to review by the National Climate Archives
Date modified: